GW5177 Weather Reports


time (UTC)temp
F
wind
direction
speed
knots
gust
knots
rain 1hr
in
rain 24hr
in
rain mn
in
humidity
%
barometer
mb
20260508131855 56 49 0.0 0.0 0.00 0.00 0.00 72 1018.8
20260508131350 56 49 0.0 0.0 0.00 0.00 0.00 75 1018.9
20260508130848 54 49 0.0 0.0 0.00 0.00 0.00 78 1018.9
20260508130344 53 50 0.0 0.9 0.00 0.00 0.00 79 1018.7
20260508125840 53 50 0.0 0.0 0.00 0.00 0.00 80 1019.0
20260508125337 53 23 0.0 0.0 0.00 0.00 0.00 81 1018.9
20260508124835 50 23 0.0 0.0 0.00 0.00 0.00 87 1018.7
20260508124332 49 23 0.0 0.0 0.00 0.00 0.00 91 1019.0
20260508123830 48 23 0.0 0.0 0.00 0.00 0.00 96 1018.9
20260508123328 47 23 0.0 0.0 0.00 0.00 0.00 99 1018.9
20260508122824 45 23 0.0 0.0 0.00 0.00 0.00 99 1019.0
20260508122321 44 23 0.0 0.0 0.00 0.00 0.00 99 1018.7
20260508121818 44 23 0.0 0.0 0.00 0.00 0.00 99 1018.8
20260508121317 43 23 0.0 0.0 0.00 0.00 0.00 99 1018.8
20260508120814 42 23 0.0 0.0 0.00 0.00 0.00 99 1018.7
20260508120312 40 23 0.0 0.0 0.00 0.00 0.00 99 1018.7
20260508115809 39 23 0.0 0.0 0.00 0.00 0.00 99 1018.8
20260508115307 37 23 0.0 0.0 0.00 0.00 0.00 99 1018.7
20260508114803 37 24 0.0 0.0 0.00 0.00 0.00 99 1018.7
20260508114300 36 24 0.0 0.0 0.00 0.00 0.00 99 1018.8
20260508113756 35 24 0.0 0.0 0.00 0.00 0.00 99 1018.7
20260508113255 35 24 0.0 0.0 0.00 0.00 0.00 99 1018.6
20260508112750 34 24 0.0 0.0 0.00 0.00 0.00 99 1018.5
20260508112248 34 24 0.0 0.0 0.00 0.00 0.00 99 1018.6
20260508111743 33 24 0.0 0.0 0.00 0.00 0.00 99 1018.6
20260508111242 33 24 0.0 0.0 0.00 0.00 0.00 99 1018.5
20260508110739 33 24 0.0 0.0 0.00 0.00 0.00 99 1018.3
20260508110236 32 24 0.0 0.0 0.00 0.00 0.00 99 1018.2
20260508105735 32 24 0.0 0.0 0.00 0.00 0.00 99 1018.2
20260508105232 32 24 0.0 0.0 0.00 0.00 0.00 99 1018.3
20260508104730 32 24 0.0 0.0 0.00 0.00 0.00 99 1018.2
20260508104227 32 24 0.0 0.0 0.00 0.00 0.00 99 1018.1
20260508103724 32 24 0.0 0.0 0.00 0.00 0.00 99 1018.3
20260508103220 32 24 0.0 0.0 0.00 0.00 0.00 99 1018.1
20260508102717 32 24 0.0 0.0 0.00 0.00 0.00 99 1017.9
20260508102216 32 24 0.0 0.0 0.00 0.00 0.00 99 1018.1
20260508101713 32 24 0.0 0.0 0.00 0.00 0.00 99 1018.0
20260508101211 32 24 0.0 0.0 0.00 0.00 0.00 99 1018.0
20260508100708 32 24 0.0 0.0 0.00 0.00 0.00 99 1017.8
20260508100206 32 24 0.0 0.0 0.00 0.00 0.00 99 1017.9
20260508095701 32 24 0.0 0.0 0.00 0.00 0.00 99 1017.9
20260508095159 32 24 0.0 0.0 0.00 0.00 0.00 99 1017.7
20260508094656 32 24 0.0 0.0 0.00 0.00 0.00 99 1017.9
20260508094152 32 24 0.0 0.0 0.00 0.00 0.00 99 1017.6
20260508093650 32 24 0.0 0.0 0.00 0.00 0.00 99 1017.8
20260508093147 32 24 0.0 0.0 0.00 0.00 0.00 99 1017.9
20260508092644 33 24 0.0 0.0 0.00 0.00 0.00 99 1017.8
20260508092143 32 24 0.0 0.0 0.00 0.00 0.00 99 1017.8
20260508091640 32 24 0.0 0.0 0.00 0.00 0.00 99 1017.7
20260508091137 32 24 0.0 0.0 0.00 0.00 0.00 99 1017.7
20260508090635 32 24 0.0 0.0 0.00 0.00 0.00 99 1017.8
20260508090132 32 24 0.0 0.0 0.00 0.00 0.00 99 1017.7
20260508085627 32 24 0.0 0.0 0.00 0.00 0.00 99 1017.8
20260508085125 32 24 0.0 0.0 0.00 0.00 0.00 99 1017.8
20260508084621 33 24 0.0 0.0 0.00 0.00 0.00 99 1017.7
20260508084119 33 24 0.0 0.0 0.00 0.00 0.00 99 1017.7
20260508083616 33 24 0.0 0.0 0.00 0.00 0.00 99 1017.7
20260508083113 33 24 0.0 0.0 0.00 0.00 0.00 99 1017.8
20260508082608 33 24 0.0 0.0 0.00 0.00 0.00 99 1017.7
20260508082106 33 24 0.0 0.0 0.00 0.00 0.00 99 1017.7
20260508081603 33 24 0.0 0.0 0.00 0.00 0.00 99 1017.7
20260508081059 33 24 0.0 0.0 0.00 0.00 0.00 99 1017.8
20260508080557 33 24 0.0 0.0 0.00 0.00 0.00 99 1017.9
20260508080055 33 24 0.0 0.0 0.00 0.00 0.00 99 1017.9
20260508075546 33 24 0.0 0.0 0.00 0.00 0.00 99 1017.9
20260508075043 34 24 0.0 0.0 0.00 0.00 0.00 99 1017.7
20260508074541 34 24 0.0 0.0 0.00 0.00 0.00 99 1017.7
20260508074038 34 24 0.0 0.0 0.00 0.00 0.00 99 1017.9
20260508073535 34 24 0.0 0.0 0.00 0.00 0.00 99 1017.8
20260508073032 34 24 0.0 0.0 0.00 0.00 0.00 99 1017.9
20260508072528 34 24 0.0 0.0 0.00 0.00 0.00 99 1017.8
20260508072026 34 24 0.0 0.0 0.00 0.00 0.00 99 1017.9
20260508071523 34 24 0.0 0.0 0.00 0.00 0.00 99 1017.8
20260508071021 34 24 0.0 0.0 0.00 0.00 0.00 99 1017.8
20260508070518 34 24 0.0 0.0 0.00 0.00 0.00 99 1017.8
20260508070016 34 24 0.0 0.0 0.00 0.00 0.00 99 1018.0
20260508065514 35 24 0.0 0.0 0.00 0.00 0.00 99 1017.9
20260508065012 34 24 0.0 0.0 0.00 0.00 0.00 99 1018.0
20260508064509 35 24 0.0 0.0 0.00 0.00 0.00 99 1017.9
20260508064007 35 24 0.0 0.0 0.00 0.00 0.00 99 1018.1
20260508063504 35 24 0.0 0.0 0.00 0.00 0.00 99 1017.9
20260508063002 35 24 0.0 0.0 0.00 0.00 0.00 99 1018.1
20260508062459 35 24 0.0 0.0 0.00 0.00 0.00 99 1018.1
20260508061955 35 24 0.0 0.0 0.00 0.00 0.00 99 1018.0
20260508061454 35 24 0.0 0.0 0.00 0.00 0.00 99 1018.2
20260508060950 35 24 0.0 0.0 0.00 0.00 0.00 99 1018.2
20260508060447 35 24 0.0 0.0 0.00 0.00 0.00 99 1018.3
20260508055943 35 24 0.0 0.0 0.00 0.00 0.00 99 1018.2
20260508055440 35 24 0.0 0.0 0.00 0.00 0.00 99 1018.2
20260508054937 35 24 0.0 0.0 0.00 0.00 0.00 99 1018.1
20260508054434 35 24 0.0 0.0 0.00 0.00 0.00 99 1018.3
20260508053930 36 24 0.0 0.0 0.00 0.00 0.00 99 1018.0
20260508053427 36 24 0.0 0.0 0.00 0.00 0.00 99 1018.1
20260508052925 36 24 0.0 0.0 0.00 0.00 0.00 99 1017.9
20260508052422 36 24 0.0 0.0 0.00 0.00 0.00 99 1018.0
20260508051919 36 24 0.0 0.0 0.00 0.00 0.00 99 1018.3
20260508051414 36 24 0.0 0.0 0.00 0.00 0.00 99 1018.3
20260508050911 36 24 0.0 0.0 0.00 0.00 0.00 99 1018.1
20260508050407 37 24 0.0 0.0 0.00 0.00 0.00 99 1018.2
20260508045903 37 24 0.0 0.0 0.00 0.00 0.00 99 1018.2
20260508045401 37 24 0.0 0.0 0.00 0.00 0.00 99 1018.3
20260508044858 37 24 0.0 0.0 0.00 0.00 0.00 99 1018.5
20260508044355 37 24 0.0 0.0 0.00 0.00 0.00 98 1018.3
20260508043851 37 24 0.0 0.0 0.00 0.00 0.00 98 1018.3
20260508043349 37 24 0.0 0.0 0.00 0.00 0.00 98 1018.3
20260508042845 37 24 0.0 0.0 0.00 0.00 0.00 98 1018.5
20260508042343 37 24 0.0 0.0 0.00 0.00 0.00 98 1018.1
20260508041839 37 24 0.0 0.0 0.00 0.00 0.00 98 1018.2
20260508041336 37 24 0.0 0.0 0.00 0.00 0.00 98 1018.3
20260508040832 37 24 0.0 0.0 0.00 0.00 0.00 98 1018.2
20260508040329 38 24 0.0 0.0 0.00 0.00 0.00 98 1018.2
20260508035826 38 24 0.0 0.0 0.00 0.00 0.00 97 1018.3
20260508035324 38 24 0.0 0.0 0.00 0.00 0.00 97 1018.3
20260508034820 38 24 0.0 0.0 0.00 0.00 0.00 97 1018.2
20260508034318 38 24 0.0 0.0 0.00 0.00 0.00 97 1018.1
20260508033814 38 24 0.0 0.0 0.00 0.00 0.00 97 1018.0
20260508033313 38 24 0.0 0.0 0.00 0.00 0.00 96 1018.3
20260508032810 38 24 0.0 0.0 0.00 0.00 0.00 96 1018.0
20260508032307 38 24 0.0 0.0 0.00 0.00 0.00 96 1018.1
20260508031803 39 24 0.0 0.0 0.00 0.00 0.00 96 1018.2
20260508031300 39 24 0.0 0.0 0.00 0.00 0.00 96 1018.1
20260508030756 39 24 0.0 0.0 0.00 0.00 0.00 95 1018.1
20260508030254 39 24 0.0 0.0 0.00 0.00 0.00 95 1017.9
20260508025750 39 24 0.0 0.0 0.00 0.00 0.00 95 1017.9
20260508025248 40 24 0.0 0.0 0.00 0.00 0.00 94 1017.8
20260508024744 40 24 0.0 0.0 0.00 0.00 0.00 94 1017.6
20260508024240 40 24 0.0 0.0 0.00 0.00 0.00 93 1017.7
20260508023738 40 24 0.0 0.0 0.00 0.00 0.00 93 1017.5
20260508023235 40 24 0.0 0.0 0.00 0.00 0.00 92 1017.5
20260508022731 41 24 0.0 0.0 0.00 0.00 0.00 92 1017.4
20260508022227 41 24 0.0 0.0 0.00 0.00 0.00 91 1017.5
20260508021724 41 23 0.0 0.0 0.00 0.00 0.00 91 1017.3
20260508021219 42 23 0.0 0.0 0.00 0.00 0.00 91 1017.3
20260508020717 42 23 0.0 0.0 0.00 0.00 0.00 90 1017.4
20260508020214 42 23 0.0 0.0 0.00 0.00 0.00 89 1017.2
20260508015711 42 23 0.0 0.0 0.00 0.00 0.00 89 1017.1
20260508015208 43 23 0.0 0.0 0.00 0.00 0.00 88 1017.1
20260508014705 43 23 0.0 0.0 0.00 0.00 0.00 88 1017.0
20260508014201 44 23 0.0 0.0 0.00 0.00 0.00 87 1017.0
20260508013657 44 23 0.0 0.0 0.00 0.00 0.00 86 1016.8
20260508013154 44 23 0.0 0.0 0.00 0.00 0.00 85 1016.7
20260508012652 45 23 0.0 0.0 0.00 0.00 0.00 84 1016.7
20260508012148 45 23 0.0 0.0 0.00 0.00 0.00 83 1016.6
20260508011647 46 23 0.0 0.0 0.00 0.00 0.00 81 1016.5
20260508011144 46 23 0.0 0.0 0.00 0.00 0.00 77 1016.5
20260508010641 47 23 0.0 0.0 0.00 0.00 0.00 76 1016.6
20260508010139 47 23 0.0 0.0 0.00 0.00 0.00 75 1016.3
20260508005636 48 23 0.0 0.0 0.00 0.00 0.00 74 1016.5
20260508005132 49 23 0.0 0.0 0.00 0.00 0.00 73 1016.3
20260508004627 49 23 0.0 0.0 0.00 0.00 0.00 72 1016.3
20260508004125 50 23 0.0 0.0 0.00 0.00 0.00 71 1016.3
20260508003621 51 23 0.0 0.0 0.00 0.00 0.00 69 1016.1
20260508003119 52 23 0.0 0.0 0.00 0.00 0.00 69 1016.0
20260508002615 53 23 0.0 0.0 0.00 0.00 0.00 68 1016.0
20260508002113 54 23 0.0 0.0 0.00 0.00 0.00 63 1016.0
20260508001608 55 23 0.0 0.0 0.00 0.00 0.00 60 1016.0
20260508001104 56 14 0.0 0.0 0.00 0.00 0.00 53 1015.7
20260508000600 56 14 0.0 0.0 0.00 0.00 0.00 53 1015.8
20260508000057 57 14 0.0 0.0 0.00 0.00 0.00 49 1015.9
20260507235554 58 14 0.0 0.9 0.00 0.00 0.00 44 1015.7
20260507235052 59 314 0.0 0.9 0.00 0.00 0.00 43 1015.5
20260507234548 59 256 0.9 1.7 0.00 0.00 0.00 41 1015.4
20260507234044 60 247 0.0 0.0 0.00 0.00 0.00 40 1015.4
20260507233541 60 293 0.0 1.7 0.00 0.00 0.00 38 1015.4
20260507233040 62 218 0.0 0.9 0.00 0.00 0.00 36 1015.3
20260507232536 63 221 0.0 0.9 0.00 0.00 0.00 37 1015.4
20260507232033 62 221 0.0 0.0 0.00 0.00 0.00 38 1015.2
20260507231529 62 221 0.9 0.9 0.00 0.00 0.00 37 1015.2
20260507231027 61 221 0.0 0.9 0.00 0.00 0.00 37 1015.1
20260507230524 62 144 0.0 0.9 0.00 0.00 0.00 38 1015.1
20260507230020 62 244 0.0 1.7 0.00 0.00 0.00 35 1015.4
20260507225515 62 228 1.7 3.5 0.00 0.00 0.00 35 1015.2
20260507225012 62 242 1.7 1.7 0.00 0.00 0.00 40 1015.2
20260507224507 62 232 1.7 2.6 0.00 0.00 0.00 37 1015.2
20260507224004 62 234 0.9 3.5 0.00 0.00 0.00 39 1015.1
20260507223500 62 227 0.0 1.7 0.00 0.00 0.00 41 1014.9
20260507222958 62 203 0.0 0.9 0.00 0.00 0.00 46 1014.9
20260507222454 64 223 0.0 2.6 0.00 0.00 0.00 41 1015.0
20260507221951 64 237 0.0 2.6 0.00 0.00 0.00 37 1015.0
20260507221448 64 266 1.7 2.6 0.00 0.00 0.00 40 1014.8
20260507220944 67 95 0.0 1.7 0.00 0.00 0.00 41 1014.7
20260507220442 64 292 0.9 2.6 0.00 0.00 0.00 37 1014.9
20260507215939 62 48 0.9 2.6 0.00 0.00 0.00 44 1014.9
20260507215435 63 242 0.0 0.9 0.00 0.00 0.00 43 1014.9
20260507214933 64 204 1.7 5.2 0.00 0.00 0.00 39 1014.6
20260507214430 64 253 1.7 2.6 0.00 0.00 0.00 40 1014.7
20260507213925 64 170 0.9 2.6 0.00 0.00 0.00 40 1014.8
20260507213422 68 221 1.7 3.5 0.00 0.00 0.00 40 1014.4
20260507212919 68 198 2.6 2.6 0.00 0.00 0.00 37 1014.5
20260507212415 66 216 3.5 6.1 0.00 0.00 0.00 40 1014.5
20260507211912 66 333 2.6 3.5 0.00 0.00 0.00 36 1014.3
20260507211408 64 174 1.7 2.6 0.00 0.00 0.00 41 1014.3
20260507210905 66 182 0.9 1.7 0.00 0.00 0.00 42 1014.2
20260507210402 66 223 0.0 0.9 0.00 0.00 0.00 40 1014.4
20260507205858 62 289 1.7 2.6 0.00 0.00 0.00 44 1014.2
20260507205355 63 182 0.0 0.0 0.00 0.00 0.00 48 1014.2
20260507204852 62 236 0.0 1.7 0.00 0.00 0.00 44 1014.3
20260507204349 63 231 1.7 2.6 0.00 0.00 0.00 44 1014.2
20260507203846 65 115 0.0 1.7 0.00 0.00 0.00 45 1014.2
20260507203339 64 290 0.0 3.5 0.00 0.00 0.00 45 1014.1
20260507202835 63 131 0.9 2.6 0.00 0.00 0.00 45 1014.2
20260507202331 64 280 0.9 3.5 0.00 0.00 0.00 40 1014.2
20260507201827 65 288 0.0 5.2 0.00 0.00 0.00 46 1014.3
20260507201323 66 272 0.9 3.5 0.00 0.00 0.00 42 1014.4
20260507200819 65 248 1.7 2.6 0.00 0.00 0.00 43 1014.4
20260507200315 68 275 3.5 5.2 0.00 0.00 0.00 40 1014.3
20260507195811 68 245 0.9 5.2 0.00 0.00 0.00 41 1014.3
20260507195309 67 105 1.7 3.5 0.00 0.00 0.00 41 1014.3
20260507194806 68 199 0.9 1.7 0.00 0.00 0.00 41 1014.2
20260507194302 68 59 1.7 2.6 0.00 0.00 0.00 40 1014.5
20260507193759 67 241 3.5 3.5 0.00 0.00 0.00 42 1014.5
20260507193256 66 199 1.7 3.5 0.00 0.00 0.00 40 1014.5
20260507192752 68 257 0.9 2.6 0.00 0.00 0.00 43 1014.5
20260507192249 67 158 0.0 1.7 0.00 0.00 0.00 45 1014.6
20260507191745 67 130 3.5 5.2 0.00 0.00 0.00 42 1014.5
20260507191242 66 139 2.6 3.5 0.00 0.00 0.00 41 1014.8
20260507190738 64 117 0.9 5.2 0.00 0.00 0.00 47 1014.7
20260507190237 66 211 0.0 1.7 0.00 0.00 0.00 46 1014.9
20260507185735 64 217 0.0 0.9 0.00 0.00 0.00 44 1014.7
20260507185231 63 196 2.6 3.5 0.00 0.00 0.00 44 1014.8
20260507184729 67 146 0.9 2.6 0.00 0.00 0.00 44 1014.9
20260507184227 64 237 0.0 2.6 0.00 0.00 0.00 48 1014.8
20260507183723 66 133 0.0 2.6 0.00 0.00 0.00 46 1015.1
20260507183220 66 34 0.9 3.5 0.00 0.00 0.00 48 1015.0
20260507182718 66 218 0.9 1.7 0.00 0.00 0.00 52 1015.0
20260507182213 66 256 1.7 2.6 0.00 0.00 0.00 46 1015.0
20260507181710 66 203 0.9 1.7 0.00 0.00 0.00 46 1014.8
20260507181206 67 278 0.9 1.7 0.00 0.00 0.00 51 1014.9
20260507180703 63 272 1.7 5.2 0.00 0.00 0.00 48 1015.0
20260507180200 62 257 1.7 1.7 0.00 0.00 0.00 49 1015.2
20260507175655 64 259 1.7 2.6 0.00 0.00 0.00 50 1014.9
20260507175152 64 220 1.7 1.7 0.00 0.00 0.00 53 1015.2
20260507174649 65 266 1.7 3.5 0.00 0.00 0.00 52 1015.2
20260507174147 65 174 0.9 0.9 0.00 0.00 0.00 53 1015.1
20260507173644 64 271 0.0 0.9 0.00 0.00 0.00 55 1015.1
20260507173141 63 282 0.0 0.9 0.00 0.00 0.00 54 1015.1
20260507172637 63 64 0.0 1.7 0.00 0.00 0.00 52 1015.4
20260507172135 62 156 0.0 2.6 0.00 0.00 0.00 51 1015.3
20260507171629 66 162 0.9 2.6 0.00 0.00 0.00 48 1015.4
20260507171127 64 238 0.9 2.6 0.00 0.00 0.00 53 1015.6
20260507170623 63 210 0.0 2.6 0.00 0.00 0.00 58 1015.6
20260507170120 63 203 0.9 1.7 0.00 0.00 0.00 56 1015.4
20260507165616 65 232 0.9 1.7 0.00 0.00 0.00 53 1015.5
20260507165113 63 242 0.0 0.9 0.00 0.00 0.00 55 1015.6
20260507164609 64 47 1.7 1.7 0.00 0.00 0.00 51 1015.8
20260507164106 66 47 0.0 0.9 0.00 0.00 0.00 57 1015.8
20260507163604 64 342 0.0 0.0 0.00 0.00 0.00 56 1015.8
20260507163102 66 50 1.7 2.6 0.00 0.00 0.00 49 1015.7
20260507162601 65 50 0.0 2.6 0.00 0.00 0.00 47 1015.8
20260507162059 64 50 0.0 0.9 0.00 0.00 0.00 55 1015.8
20260507161555 62 50 0.9 1.7 0.00 0.00 0.00 53 1016.0
20260507161051 65 48 0.9 1.7 0.00 0.00 0.00 49 1016.0
20260507160548 62 48 0.0 1.7 0.00 0.00 0.00 54 1016.0
20260507160044 61 48 0.0 1.7 0.00 0.00 0.00 52 1016.1
20260507155539 61 276 0.0 1.7 0.00 0.00 0.00 55 1016.1
20260507155037 61 245 0.0 0.9 0.00 0.00 0.00 59 1016.3
20260507154534 60 271 0.0 2.6 0.00 0.00 0.00 56 1016.1
20260507154031 59 229 0.0 0.0 0.00 0.00 0.00 56 1016.0
20260507153528 59 229 0.9 2.6 0.00 0.00 0.00 53 1016.1
20260507153024 62 246 5.2 7.0 0.00 0.00 0.00 51 1016.2
20260507152519 59 250 0.9 1.7 0.00 0.00 0.00 62 1016.1
20260507152016 59 280 0.0 0.9 0.00 0.00 0.00 56 1016.0
20260507151513 60 280 0.9 1.7 0.00 0.00 0.00 55 1016.1
20260507151010 63 280 0.9 0.9 0.00 0.00 0.00 54 1016.0
20260507150506 62 280 0.9 1.7 0.00 0.00 0.00 57 1016.0
20260507150003 61 280 0.0 0.9 0.00 0.00 0.00 61 1016.1
20260507145458 60 280 0.0 0.9 0.00 0.00 0.00 62 1016.2
20260507144955 59 243 0.9 2.6 0.00 0.00 0.00 58 1016.2
20260507144452 61 20 0.0 1.7 0.00 0.00 0.00 59 1016.2
20260507143949 59 275 0.0 2.6 0.00 0.00 0.00 60 1016.3
20260507143447 57 19 0.0 1.7 0.00 0.00 0.00 64 1016.1
20260507142943 58 225 0.9 0.9 0.00 0.00 0.00 59 1016.1
20260507142439 58 273 1.7 2.6 0.00 0.00 0.00 69 1016.2
20260507141937 59 143 0.0 0.0 0.00 0.00 0.00 61 1016.2
20260507141432 57 167 0.9 2.6 0.00 0.00 0.00 66 1016.3
20260507140929 58 116 0.9 0.9 0.00 0.00 0.00 64 1016.3
20260507140426 56 116 0.0 0.9 0.00 0.00 0.00 67 1016.4
20260507135924 58 116 0.0 0.0 0.00 0.00 0.00 63 1016.6
20260507135420 58 116 0.0 0.9 0.00 0.00 0.00 72 1016.5
20260507134918 57 116 0.0 0.0 0.00 0.00 0.00 73 1016.5
20260507134414 56 116 0.0 0.0 0.00 0.00 0.00 71 1016.7
20260507133910 55 115 0.0 0.9 0.00 0.00 0.00 72 1016.9
20260507133406 56 115 0.0 0.0 0.00 0.00 0.00 73 1016.8
20260507132905 56 116 0.0 0.0 0.00 0.00 0.00 75 1016.9
20260507132400 55 116 0.0 0.0 0.00 0.00 0.00 78 1016.9